#timestamp,LO_Frequency,Hit,StdDev 
1570690815.7,286046998.3,N
1570690835.5,286046998.9,N
1570690855.4,286046998.9,N
1570690875.2,286046998.9,N
1570690895.1,286046998.4,N
1570690896.0,286046998.4,N
1570690915.8,286046998.7,N
1570690935.6,286046997.4,N
1570690955.5,286046997.8,N
1570690975.3,286046999.6,N
1570690995.2,286046999.0,N
1570691015.9,286046996.7,N
1570691035.7,286046997.6,N
1570691055.6,286046996.2,N
1570691075.4,286046997.7,N
1570691095.2,286046996.5,N
1570691115.1,286046997.5,N
1570691116.0,286046997.5,N
1570691135.8,286046997.4,N
1570691155.7,286046997.0,N
1570691175.5,286046994.9,Y
1570691195.3,286046997.2,P
1570691215.2,286046996.5,P
1570691235.0,286046997.1,P
1570691235.9,286046997.1,Y
1570691255.8,286046999.1,P
1570691275.6,286046997.6,N
1570691295.4,286046997.5,P
1570691315.3,286046999.3,N
1570691335.1,286046998.7,N
1570691355.9,286047000.8,N
1570691375.7,286047000.9,N
1570691395.5,286046998.3,N
1570691415.4,286047000.9,N
1570691435.2,286047001.2,N
1570691455.0,286047001.1,N
1570691456.0,286047001.1,N
1570691475.8,286047000.8,N
1570691495.6,286047000.7,N
1570691515.5,286046998.2,N
1570691535.3,286046998.1,N
1570691555.1,286047001.2,N
1570691575.9,286047001.2,N
1570691595.7,286046999.9,N
1570691615.6,286047000.1,N
1570691635.4,286047000.8,N
1570691655.2,286047000.9,N
1570691675.1,286047001.2,N
1570691676.0,286047001.2,N
1570691695.8,286046998.2,N
1570691715.6,286047001.0,N
1570691735.5,286047000.0,N
1570691755.3,286046999.9,N
1570691775.2,286047000.2,N
1570691795.9,286046999.9,N
1570691815.7,286047001.2,N
1570691835.6,286047001.2,N
1570691855.4,286046998.6,N
1570691875.2,286046998.7,N
1570691895.1,286046996.5,Y
1570691896.0,286046996.5,P
1570691915.8,286046996.7,N
1570691935.7,286046999.1,N
1570691955.5,286046998.3,N
1570691975.3,286046998.2,N
1570691995.2,286046999.3,N
1570692015.0,286047000.8,N
1570692015.9,286047000.8,N
1570692035.8,286046998.2,N
1570692055.6,286046998.2,N
1570692075.4,286047000.3,N
1570692095.3,286047001.7,N
1570692115.1,286047002.6,N
1570692135.9,286047000.8,N
1570692155.7,286047000.3,N
1570692175.5,286047001.7,N
1570692195.4,286047002.0,N
1570692215.2,286047001.9,N
1570692235.0,286047002.7,N
1570692235.9,286047002.7,N
1570692255.8,286047002.3,N
1570692275.6,286047001.5,N
1570692295.5,286047004.4,N
1570692315.3,286047003.7,N
1570692335.1,286047003.8,N
1570692355.9,286047003.4,N
1570692375.7,286047004.1,N
1570692395.5,286047001.8,N
1570692415.4,286047002.1,N
1570692435.2,286046999.8,N
1570692455.1,286046999.7,N
1570692456.0,286046999.7,N
1570692475.8,286047001.9,N
1570692495.6,286047004.2,N
1570692515.5,286047003.9,N
1570692535.3,286047003.6,N
1570692555.2,286047003.5,N
1570692575.9,286047001.3,N
1570692595.7,286047002.4,N
1570692615.6,286047002.3,N
1570692635.4,286047001.4,N
1570692655.3,286047004.4,Y
1570692675.1,286047000.6,P
1570692676.0,286047000.6,N
1570692695.8,286047001.0,N
1570692715.7,286046999.3,N
1570692735.5,286046996.9,Y
1570692755.4,286046999.2,P
1570692775.2,286046998.8,N
1570692795.0,286047001.1,N
1570692795.9,286047001.1,N
1570692815.8,286046998.5,N
1570692835.6,286047000.3,N
1570692855.4,286047000.2,N
1570692875.3,286047002.6,N
1570692895.1,286047001.5,N
1570692915.9,286047000.0,N
1570692935.7,286047000.6,N
1570692955.5,286047000.5,N
1570692975.4,286047001.0,N
1570692995.2,286046999.8,N
1570693015.0,286046998.5,N
1570693016.0,286046998.5,N
1570693035.8,286046999.2,N
1570693055.6,286046996.6,Y
1570693075.5,286046997.7,P
1570693095.3,286046994.9,P
1570693115.1,286046997.6,N
1570693135.9,286046996.7,N
1570693155.7,286046997.0,N
1570693175.6,286046996.8,N
1570693195.4,286046999.5,N
1570693215.2,286046998.1,N
1570693235.1,286047000.7,N
1570693236.0,286047000.7,N
1570693255.8,286046998.2,N
1570693275.7,286046998.1,N
1570693295.5,286046999.5,N
1570693315.3,286046996.7,N
1570693335.2,286046999.4,N
1570693355.9,286046998.7,N
1570693375.7,286046998.1,N
1570693395.6,286047002.4,N
1570693415.4,286047001.0,N
1570693435.3,286047001.2,N
1570693455.1,286047000.5,N
1570693456.0,286047000.5,N
1570693475.8,286047001.2,N
1570693495.7,286047001.0,N
1570693515.5,286047000.5,N
1570693535.3,286047000.7,N
1570693555.2,286047002.3,N
1570693575.0,286047002.0,N
1570693575.9,286047002.0,N
1570693595.8,286047004.0,N
1570693615.6,286047004.0,N
1570693635.5,286047002.8,N
1570693655.3,286047002.8,N
1570693675.1,286047001.0,N
1570693695.9,286047000.5,N
1570693715.7,286047002.4,N
1570693735.6,286047001.8,N
1570693755.4,286047002.6,N
1570693775.2,286047002.4,N
1570693795.1,286047002.5,N
1570693796.0,286047002.5,N
1570693815.8,286047002.8,N
1570693835.7,286047000.7,N
1570693855.5,286046999.6,N
1570693875.3,286046997.5,N
1570693895.2,286046996.5,N
1570693915.0,286047000.6,N
1570693915.9,286047000.6,N
1570693935.8,286047000.3,N
1570693955.6,286047000.5,N
1570693975.4,286046999.0,N
1570693995.3,286046998.5,N
1570694015.1,286046997.8,N
1570694035.8,286046996.8,N
1570694055.7,286046996.8,N
1570694075.5,286046999.3,N
1570694095.4,286046999.0,N
1570694115.2,286047000.6,N
1570694135.0,286047000.5,N
1570694135.9,286047000.5,N
1570694155.8,286047001.2,N
1570694175.6,286046998.2,N
1570694195.8,286047001.0,N
1570694215.6,286047000.5,N
1570694235.4,286047001.0,N
1570694255.3,286046998.1,N
1570694275.1,286047000.4,N
1570694295.9,286046998.4,N
1570694315.7,286047001.2,N
1570694335.5,286046999.8,N
1570694355.4,286047001.4,N
1570694375.2,286047002.0,N
1570694395.1,286047000.2,N
1570694396.0,286047000.2,N
